Langley AFB, VA

5:38 AM EST on February 23, 2018 (GMT -0500)
Langley Air Force Base

Weather History for KLFI - October, 2013

Change the Weather History Date:

Saturday, October 5, 2013

  Actual Average Record
Temperature  
Mean Temperature 76 °F -  
Max Temperature 88 °F 72 °F 95 °F (1941)
Min Temperature 64 °F 55 °F 37 °F (1965)
Cooling Degree Days 10    
Growing Degree Days 26 (Base 50)    
Moisture  
Dew Point 67 °F    
Average Humidity 79    
Maximum Humidity 100    
Minimum Humidity 46    
Precipitation  
Precipitation 0.00 in - - ()
Sea Level Pressure  
Sea Level Pressure 30.08 in    
Wind  
Wind Speed 3 mph (SSW)    
Max Wind Speed 9 mph    
Max Gust Speed -    
Visibility 7 miles    
Events Rain    
Averages and records for this station are not official NWS values.
T = Trace of Precipitation, MM = Missing Value Source: NWS Daily Summary

Daily Weather History Graph

Daily Weather History Graph

Search for Another Location

Airport or City:

Trip Planner

Search our weather history database for the weather conditions in past years. The results will help you decide how hot, cold, wet, or windy it might be!

Date:

Astronomy

Oct. 05, 2013 Rise Set
Actual Time 7:04 AM EDT 6:42 PM EDT
Civil Twilight 6:38 AM EDT 7:08 PM EDT
Nautical Twilight 6:08 AM EDT 7:38 PM EDT
Astronomical Twilight 5:38 AM EDT 8:08 PM EDT
Moon 7:39 AM EDT (10/5) 7:02 PM EDT (10/5)
Length of Visible Light 12h 29m
Length of Day
11h 38m
New Moon, 0% of the Moon is Illuminated
Oct 5
New Moon
Oct 11
First Quarter
Oct 18
Full
Oct 26
Last Quarter
Nov 3
New

Hourly Weather History & Observations

Time (EDT) Temp. Heat Index Dew Point Humidity Pressure Visibility Wind Dir Wind Speed Gust Speed Precip Events Conditions
12:03 AM 69.8 °F - 68.0 °F 94% 30.07 in 6.0 mi SSW 4.6 mph - N/A   Clear
12:43 AM 71.6 °F - 66.2 °F 83% 30.07 in 5.0 mi SSW 3.5 mph - N/A   Haze
12:48 AM 71.6 °F - 66.2 °F 83% 30.07 in 6.0 mi SW 3.5 mph - N/A   Haze
12:53 AM 69.8 °F - 66.2 °F 88% 30.07 in 8.0 mi WSW 2.3 mph - N/A   Clear
12:58 AM 70.2 °F - 66.6 °F 88% 30.09 in 7.0 mi Variable 2.3 mph - N/A   Clear
1:13 AM 69.8 °F - 66.2 °F 88% 30.07 in 6.0 mi Variable 1.2 mph - N/A   Clear
1:23 AM 68.0 °F - 66.2 °F 94% 30.07 in 8.0 mi Calm Calm - N/A   Clear
1:53 AM 69.8 °F - 66.2 °F 88% 30.07 in 7.0 mi Calm Calm - N/A   Clear
1:58 AM 69.1 °F - 67.1 °F 93% 30.09 in 6.0 mi SSW 1.2 mph - N/A   Clear
2:28 AM 68.0 °F - 68.0 °F 100% 30.06 in 7.0 mi SSW 2.3 mph - N/A   Clear
2:58 AM 68.4 °F - 67.3 °F 96% 30.08 in 9.0 mi WSW 3.5 mph - N/A   Clear
3:03 AM 68.0 °F - 68.0 °F 100% 30.06 in 10.0 mi WSW 2.3 mph - N/A   Clear
3:23 AM 68.0 °F - 68.0 °F 100% 30.06 in 6.0 mi SSW 3.5 mph - N/A   Clear
3:33 AM 68.0 °F - 68.0 °F 100% 30.06 in 10.0 mi SW 2.3 mph - N/A   Clear
3:38 AM 68.0 °F - 66.2 °F 94% 30.06 in 9.0 mi WSW 3.5 mph - N/A   Clear
3:48 AM 66.2 °F - 66.2 °F 100% 30.06 in 6.0 mi SW 3.5 mph - N/A   Clear
3:53 AM 68.0 °F - 68.0 °F 100% 30.06 in 7.0 mi SSW 3.5 mph - N/A   Clear
3:58 AM 67.5 °F - 67.3 °F 99% 30.08 in 8.0 mi SW 4.6 mph - N/A   Clear
4:13 AM 68.0 °F - 68.0 °F 100% 30.06 in 6.0 mi WSW 2.3 mph - N/A   Clear
4:58 AM 66.7 °F - 66.7 °F 100% 30.09 in 7.0 mi SW 3.5 mph - N/A   Clear
5:58 AM 65.8 °F - 65.8 °F 100% 30.10 in 6.0 mi WSW 4.6 mph - N/A   Clear
6:18 AM 66.2 °F - 66.2 °F 100% 30.08 in 7.0 mi WSW 3.5 mph - N/A   Clear
6:48 AM 66.2 °F - 66.2 °F 100% 30.09 in 6.0 mi WSW 4.6 mph - N/A   Clear
6:53 AM 64.4 °F - 64.4 °F 100% 30.09 in 5.0 mi WSW 4.6 mph - N/A   Clear
6:58 AM 65.1 °F - 65.1 °F 100% 30.11 in 5.0 mi WSW 3.5 mph - N/A   Clear
7:58 AM 67.1 °F - 67.1 °F 100% 30.11 in 5.0 mi West 2.3 mph - N/A   Clear
8:58 AM 72.3 °F - 67.8 °F 86% 30.12 in 5.0 mi WSW 3.5 mph - N/A   Haze
9:53 AM 77.0 °F - 66.2 °F 69% 30.10 in 2.5 mi Calm Calm - N/A   Haze
9:58 AM 78.3 °F - 66.9 °F 68% 30.12 in 2.5 mi Calm Calm - N/A   Haze
10:18 AM 80.6 °F 82.7 °F 66.2 °F 61% 30.10 in 3.0 mi ESE 1.2 mph - N/A   Haze
10:21 AM 80.6 °F 82.7 °F 66.2 °F 61% 30.10 in 2.5 mi Calm Calm - N/A Rain Light Rain
10:26 AM 80.6 °F 82.7 °F 66.2 °F 61% 30.10 in 2.0 mi NNE 1.2 mph - N/A Rain Light Rain
10:31 AM 80.6 °F 83.2 °F 68.0 °F 65% 30.10 in 2.5 mi Calm Calm - N/A Rain Light Rain
10:33 AM 80.6 °F 83.2 °F 68.0 °F 65% 30.10 in 10.0 mi Variable 1.2 mph - N/A   Clear
10:34 AM 82.4 °F 85.4 °F 68.0 °F 62% 30.10 in 10.0 mi Variable 3.5 mph - N/A   Clear
10:36 AM 82.4 °F 85.4 °F 68.0 °F 62% 30.10 in 10.0 mi Variable 3.5 mph - N/A   Clear
10:58 AM 82.9 °F 85.6 °F 67.3 °F 59% 30.12 in 10.0 mi Variable 2.3 mph - 0.00 in   Clear
11:33 AM 84.2 °F 86.6 °F 66.2 °F 55% 30.10 in 2.5 mi NE 3.5 mph - N/A   Haze
11:43 AM 84.2 °F 86.6 °F 66.2 °F 55% 30.09 in 1.8 mi Variable 1.2 mph - N/A   Haze
11:48 AM 84.2 °F 86.6 °F 66.2 °F 55% 30.09 in 2.0 mi Variable 4.6 mph - N/A   Haze
11:58 AM 84.9 °F 86.8 °F 65.5 °F 52% 30.11 in 10.0 mi Variable 2.3 mph - N/A   Clear
12:58 PM 86.0 °F 88.2 °F 66.2 °F 51% 30.11 in 10.0 mi East 5.8 mph - N/A   Clear
1:58 PM 86.0 °F 88.2 °F 66.2 °F 51% 30.09 in 10.0 mi East 8.1 mph - N/A   Clear
2:58 PM 87.8 °F 89.4 °F 64.4 °F 46% 30.07 in 10.0 mi East 5.8 mph - N/A   Clear
3:58 PM 86.0 °F 87.6 °F 64.6 °F 49% 30.06 in 10.0 mi ESE 9.2 mph - N/A   Clear
4:58 PM 84.2 °F 85.8 °F 64.6 °F 52% 30.06 in 10.0 mi SE 8.1 mph - N/A   Clear
5:58 PM 82.0 °F 83.9 °F 65.7 °F 57% 30.05 in 10.0 mi SE 6.9 mph - N/A   Clear
6:58 PM 78.8 °F - 66.4 °F 66% 30.06 in 10.0 mi SE 5.8 mph - N/A   Clear
7:58 PM 77.9 °F - 66.0 °F 67% 30.07 in 10.0 mi SE 5.8 mph - N/A   Clear
8:58 PM 76.3 °F - 66.4 °F 71% 30.07 in 10.0 mi SSE 4.6 mph - N/A   Clear
9:58 PM 74.8 °F - 67.8 °F 79% 30.08 in 10.0 mi South 3.5 mph - N/A   Clear
10:58 PM 74.8 °F - 68.4 °F 80% 30.08 in 10.0 mi South 5.8 mph - N/A   Clear
11:58 PM 73.9 °F - 67.8 °F 81% 30.08 in 10.0 mi SW 6.9 mph - N/A   Clear